Terminal Aerodrome Forecast
Issued by NWS

Home | Current Version | Previous Version | Graphics & Text | Print | Product List | Glossary On
Versions: 1 2 3 4 5 6 7 8 9 10 11 12 13 14 15 16 17 18 19 20 21 22 23 24 25 26 27 28 29 30 31 32 33 34 35 36 37 38 39 40 41 42 43 44 45 46 47 48 49 50
000
FTUS43 KLOT 042329
TAFGYY
TAF
KGYY 042329Z 0500/0524 07009KT P6SM FEW045 SCT100 BKN250
     FM050700 06007KT 6SM -SHRA VCTS SCT030CB BKN045
     FM050900 06009KT 4SM -SHRA VCTS BKN025CB OVC040 PROB30
      0509/0512 3SM -TSRA OVC025CB
     FM051200 09010KT 3SM -SHRA BR OVC010
     FM051800 05011KT P6SM SCT015 BKN050=

USA.gov is the U.S. government's official web portal to all federal, state and local government web resources and services.